HAWK-4B

Last updated on Fri Dec 29 2023 00:03:29 GMT+0000 (Coordinated Universal Time)

1 52165U 22033J 23362.20633602 .00012689 00000+0 40038-3 0 9990 2 52165 97.3427 80.7301 0007981 193.8058 166.2967 15.32962344 96912

Satellite not in orbit

HAWK-4B